Simultaneous Nadir Overpasses (SNOs) Predictions

Prediction of SNOs between LANDSAT-8 and METOP-B Satellite Orbit:

Table of predicted SNOs for the next 14.0 days since TLE Epoch: 6/8/2024
Index Date (LANDSAT-8) Time (LANDSAT-8) Lat,Lon (LANDSAT-8) SZA (LANDSAT-8 ) Date (METOP-B) Time (METOP-B) Lat,Lon (METOP-B) SZA (METOP-B ) Distance(km) Time Diff (sec)
1 06/10/2024 00:17:41 81.35,-140.49 60.87 06/10/2024 00:16:39 81.36,-140.54 60.84 0.78 62
2 06/10/2024 01:07:07 -81.37, 27.46 119.09 06/10/2024 01:07:18 -81.37, 27.54 119.08 1.37 11
3 06/12/2024 19:51:55 81.35, -74.04 60.68 06/12/2024 19:50:51 81.36, -73.88 60.67 2.73 64
4 06/12/2024 20:41:21 -81.37, 93.93 119.28 06/12/2024 20:41:31 -81.37, 93.84 119.29 1.65 10
5 06/15/2024 15:26:08 81.36, -7.53 60.54 06/15/2024 15:25:03 81.36, -7.35 60.54 3.04 65
6 06/15/2024 16:15:34 -81.37, 160.46 119.41 06/15/2024 16:15:43 -81.37, 160.40 119.42 1.24 9
7 06/18/2024 11:00:19 81.36, 59.03 60.47 06/18/2024 10:59:14 81.36, 59.04 60.44 0.28 65
8 06/18/2024 11:49:46 -81.36,-133.35 119.54 06/18/2024 11:49:54 -81.37,-133.18 119.51 2.94 8
9 06/21/2024 06:34:30 81.37, 125.64 60.45 06/21/2024 06:33:25 81.36, 125.70 60.43 1.12 65



Historial Predications of SNOs between LANDSAT-8 and METOP-B
